CZ-8A R/B, 66924

Orbit data source: Space-Track

CZ-8A R/B, 66924 is space debris in LEO originally from a launch on Sat, 06 Dec 2025 UTC launched from the Wenchang Satellite Launch Center (WSC). Debris objects in space refer to the collection of defunct objects orbiting the Earth. Examples of debris include non-operational satellites, rocket bodies, and fragments generated from explosions, collisions, or faulty payload assembly.

Loading next visibility...
Identifier
66924, 2025-285K
Orbit
LEO
Country
Flag of CNCN / PRC
Related business
Manufacturer
CALT
Mission
Spacecraft
Bus & Motor
CZ-8A STAGE 2, Unknown motor
Mass
~2,800 kg wet, ~2,800 kg dry
Launch date (UTC)
2025-12-06 (6 months ago)
Launch vehicle
Unknown
Launch site
Wenchang Satellite Launch Center (WSC)
Object type
Payload
Rocket body
Debris
Shape & HBR
Cyl, 8.0 m
Radar Cross Section
36.967 m², Large (>1 m²)

Expand to show TLE details & history
Last TLE update: 13 hours ago

TLE from 13 hours ago
0 CZ-8A R/B
1 66924U 25285K   26171.31918714 -.00000035  00000-0  46786-4 0  9994
2 66924  50.0086  29.1250 0119129  54.7551 306.4446 14.30588170 28067
Epoch: 2026-06-20T07:39Z
TLE epoch observation values (Epoch: 2026-06-20T07:39:37.768Z)
Latitude
-0.00002°
Longitude
5.6821°
Altitude
740.239 km
Speed
7.512 km/s
True Right ascension
01h 56m 29s
True Declination
0° 00' 00"
Sunlit
Object was in daylight at epoch
Visualization orbit readout
Latitude
Unknown
Longitude
Unknown
Altitude
Unknown
Speed
Unknown
Apparent Right ascension
Unknown
Apparent Declination
Unknown
Sunlit
N/A
Visualization observer readout
Local Sidereal Time
07:14:11
Azimuth
Unknown
Elevation
Unknown
Doppler factor
Unknown
Orbital elements
Apogee altitude
875.904 km
Perigee altitude
705.105 km
Semi-major axis
7,168.642 km
Eccentricity
0.01191
Inclination
50.0086°
RAAN
29.125°
Arg. of periapsis
54.7551°
True anomaly
305.33673°
Mean anomaly
306.4446°
Eccentric anomaly
305.89164°
Mean motion
3.57592 °/min
Orbital period
100.67 mins
BSTAR
0.000046786
Loading maneuver chart data...
Computing Atmospheric mass density...
Loading historical data...
Loading historical data...
Loading historical data...
Loading historical data...
Loading historical data...
Loading historical data...
Loading historical data...

Documentation

Showing up to 5 results
|